Flag for Slovenia Weather past 2 weeks in Ljubljana, Slovenia

Now
73 °F

Partly sunny.


Feels Like: 75 °F
Forecast: 61 / 87 °F
Wind: 1 mph from West

Location: Ljubljana / Bezigrad

Current Time: Aug 3, 2015 at 11:45:16 AM

Latest Report: Aug 3, 2015 at 11:00 AM


Visibility: 11 mi

Pressure: 30.08 "Hg

Humidity: 70%

Dew point: 62 °F

Location of LjubljanaLocation

Historic Weather in Ljubljana — Graph

°F

Ljubljana temperature yesterday

Maximum temperature yesterday: 78 °F (at 4:00 PM)
Minimum temperature yesterday: 63 °F (at 4:00 AM)
Average temperature yesterday: 70 °F

Past Weeks' High & Low Weather Summary

 TemperatureHumidityPressure
High96 °F (Jul 22, 4:00 PM)100% (Jul 30, 7:00 AM)30.09 "Hg (Jul 30, 7:00 AM)
Low54 °F (Aug 1, 4:00 AM)31% (Jul 19, 3:00 PM)29.70 "Hg (Jul 25, 6:00 PM)
Average71 °F74%29.91 "Hg
* Reported Jul 19 10:00 AM — Aug 3 10:00 AM, Ljubljana, Weather by CustomWeather, © 2015

Note: Actual official high and low records may vary slightly from our data, if they occured in-between our weather recording intervals... More about our weather records

Advertising

Ljubljana weather history for previous 24 hours

 ConditionsComfort  
Time TempWeatherWind HumidityBarometerVisibility
10:00 AM
Mon, Aug 3
69 °FOvercast.No wind77%30.09 "Hg11 mi
9:00 AM68 °FPartly sunny.No wind83%30.08 "Hg11 mi
8:00 AM65 °FLow clouds.1 mph86%30.09 "Hg9 mi
7:00 AM65 °FLow clouds.No wind86%30.07 "Hg9 mi
6:00 AM65 °FLow clouds.No wind89%30.08 "Hg9 mi
5:00 AM65 °FMild.No wind85%30.07 "HgN/A
4:00 AM66 °FMild.No wind81%30.07 "HgN/A
3:00 AM66 °FMild.1 mph81%30.07 "HgN/A
2:00 AM67 °FMild.No wind81%30.08 "HgN/A
1:00 AM68 °FMild.2 mph78%30.09 "HgN/A
12:00 AM68 °FMild.2 mph77%30.08 "HgN/A
10:00 PM
Sun, Aug 2
69 °FPassing clouds.2 mph71%30.07 "Hg19 mi
9:00 PM70 °FPassing clouds.1 mph69%30.05 "Hg19 mi
8:00 PM72 °FPartly sunny.2 mph65%30.04 "Hg19 mi
7:00 PM74 °FMild.3 mph59%30.03 "HgN/A
6:00 PM77 °FPartly sunny.3 mph59%30.01 "Hg19 mi
5:00 PM78 °FScattered clouds.3 mph60%30.01 "Hg25 mi
4:00 PM78 °FScattered clouds.3 mph58%30.01 "Hg19 mi
3:00 PM77 °FScattered clouds.3 mph59%30.01 "Hg19 mi
2:00 PM77 °FScattered clouds.3 mph63%30.02 "Hg19 mi
1:00 PM74 °FScattered clouds.2 mph64%30.03 "Hg16 mi
12:00 PM72 °FPartly sunny.2 mph74%30.03 "Hg14 mi
11:00 AM71 °FPartly sunny.1 mph75%30.03 "Hg7 mi
Weather by CustomWeather, © 2015

See weather overviewHow to use our weather pages